Regional Weather Roundup
Issued by NWS

Home | Current Version | Previous Version | Graphics & Text | Print | Product List | Glossary On
Versions: 1 2 3 4 5 6 7 8 9 10 11 12 13 14 15 16 17 18 19 20 21 22 23 24 25 26 27
000
ASUS45 KTFX 180610
RWRMT
MONTANA REGIONAL WEATHER ROUNDUP
NATIONAL WEATHER SERVICE GREAT FALLS MT
1100 PM MST SAT FEB 17 2018

NOTE: "FAIR" INDICATES FEW OR NO CLOUDS BELOW 12000 FEET WITH NO
SIGNIFICANT WEATHER AND/OR OBSTRUCTIONS TO VISIBILITY.

MTZ001>007-043-180700-
WEST OF THE DIVIDE

CITY           SKY/WX    TMP DP  RH WIND       PRES   REMARKS
KALISPELL      BLWGSNOW  14  10  84 N31G41    29.55R VSB 1/2 WCI  -7
MISSOULA       LGT SNOW  33  31  92 NW20G26   29.47R FOG     WCI  21
MULLAN PASS    CLOUDY    21  19  92 NW8G25    29.38S WCI  11
ANACONDA         N/A     34  23  64 SW9       29.43S WCI  26
DEER LODGE       N/A     28  25  86 NE3       29.44R
EUREKA           N/A     14   9  79 MISG      29.65R
HAMILTON         N/A     36  28  75 MISG      29.49R
RONAN            N/A     32  30  93 CALM      29.50R
$$

MTZ008-052>055-180700-
SOUTHWEST MONTANA

CITY           SKY/WX    TMP DP  RH WIND       PRES   REMARKS
BOZEMAN        CLOUDY    36  29  75 SW14      29.41F WCI  27
DILLON         CLOUDY    26  26 100 NW6       29.46R WCI  19
ENNIS          SNOW      32  30  93 W17G32    29.51R VSB 1/2 WCI  21
W YELLOWSTONE  SNOW      28  28 100 SW22G36   29.43S VSB 1/4 WCI  15
THREE FORKS      N/A     38  29  70 SW8       29.45S
$$

MTZ009-010-012-014-046-048-049-054-180700-
EAST SLOPES AND CENTRAL MONTANA

CITY           SKY/WX    TMP DP  RH WIND       PRES   REMARKS
CUT BANK       LGT SNOW   5   1  83 N21       29.69R VSB 1   WCI -16
GREAT FALLS    LGT SNOW   7   3  84 N14       29.62R VSB 1   WCI -10
MALMSTROM AFB  LGT SNOW   7   5  92 N9        29.63R WCI  -7
HELENA         FAIR      14   8  77 N8        29.51R WCI   3
AUGUSTA        HVY SNOW   5   3  90 N33       29.59R VSB 1/8 WCI -20
BOWMANS CRNR   LGT SNOW   5   2  89 N23       29.58R VSB 7/8 WCI -17
FAIRFIELD      SNOW       6   3  84 NW23      29.65R VSB 3/8 WCI -15
POWER          LGT SNOW   6   3  87 N23       29.62R VSB 3/4 WCI -15
RAYNESFORD     LGT SNOW  10   6  82 W22G29    29.55R WCI -10
ULM            LGT SNOW   8   5  87 NW13      29.64R WCI  -8
WHITE SULPHUR    N/A     25  19  80 NW13      29.37R WCI  13
$$

MTZ011-013-016-021-045-047-050-051-180700-
NORTH CENTRAL MONTANA

CITY           SKY/WX    TMP DP  RH WIND       PRES   REMARKS
HAVRE          LGT SNOW   9   7  92 E17       29.69R VSB 3/4 WCI  -9
LEWISTOWN      CLOUDY    16  13  88 SE3       29.45R
N BAR RANCH    CLOUDY    16  12  86 NE5       29.41R
CHINOOK          N/A      9   7  92 NE8       29.74R VSB 3/4 WCI  -4
GEYSER         LGT SNOW  12   8  87 W38G45    29.47R VSB 1   WCI -12
STANFORD       SNOWSHWR  11   8  89 NW43G48   29.42R VSB 1/2 WCI -14
WINIFRED       LGT SNOW  11   9  91 NE24      29.47R VSB 5/8 WCI  -9
$$

MTZ017>020-022>027-061-062-180700-
NORTHEAST MONTANA

CITY           SKY/WX    TMP DP  RH WIND       PRES   REMARKS
GLASGOW        LGT SNOW  12   8  84 E21       29.70R VSB 3/4 WCI  -7
GLENDIVE       LGT SNOW  15  12  88 NE16      29.64F FOG     WCI  -1
JORDAN           N/A     14  10  84 E20       29.56F WCI  -3
MALTA          FOG       10   7  85 NE18      29.67F VSB 1   WCI  -8
SIDNEY         LGT SNOW  14   9  80 NE9       29.76F WCI   2
WOLF POINT     SNOW      13   8  81 E14       29.75S VSB 1/2 WCI  -2
PLENTYWOOD       N/A      9   1  72 NE3       29.77F
$$

MTZ028>42-056>058-180700-
SOUTHCENTRAL AND SOUTHEAST MONTANA

CITY           SKY/WX    TMP DP  RH WIND       PRES   REMARKS
BAKER          CLOUDY    16  11  80 SE24      29.56F WCI  -2
BILLINGS       CLOUDY    22  21  96 N8        29.42S WCI  12
LIVINGSTON     LGT SNOW  33  33 100 SW16      29.42R VSB 3/4 WCI  23
MILES CITY     CLOUDY    17  14  88 E12       29.51F WCI   4
BIG TIMBER     CLOUDY    25  23  93 SW9       29.43R FOG     WCI  15
FORSYTH          N/A     19  19 100 SE14      29.47F WCI   6
HARLOWTON      FLURRIES  16  14  93 N8        29.42S WCI   5
LAUREL           N/A     23  21  93 N10       29.43F WCI  12
$$

REGIONAL REPORTS...DAKOTAS

CITY           SKY/WX    TMP DP  RH WIND       PRES   REMARKS
WILLISTON      CLOUDY    13   5  70 NE10      29.80R WCI   0
MINOT          CLOUDY    10   3  73 E6        29.87S WCI   0
DICKINSON      LGT SNOW  15  10  80 E14       29.66F WCI   0
BEACH          LGT SNOW  14  10  85 SE20      29.65F WCI  -3
CROSBY         FAIR       5   1  85 CALM      29.83S
TIOGA          CLOUDY     9   5  85 E9        29.79F WCI  -5
BISMARCK       CLOUDY    17  11  77 E5        29.88F
GRAND FORKS    FAIR       9   5  84 CALM      29.99R
FARGO          CLOUDY    13   8  81 CALM      29.98R
BUFFALO SD       N/A     17   7  64 E20       29.51F WCI   1
RAPID CITY     FAIR      23  21  92 SE10      29.54F WCI  12
$$

REGIONAL REPORTS...WYOMING/IDAHO/WASHINGTON

CITY           SKY/WX    TMP DP  RH WIND       PRES   REMARKS
GILLETTE       FAIR      42  21  43 SW23G31   29.43F
SHERIDAN       FAIR      23  20  88 CALM      29.43F
BUFFALO WY     FAIR      43  22  43 W24G38    29.39F
CODY           FAIR      39  26  59 SW20G28   29.40F WCI  29
YELLOWSTONE LA   N/A     25  23  92 VRB7      29.49F WCI  17
IDAHO FALLS    CLOUDY    43  24  47 SW20G31   29.56F
SALMON         LGT RAIN  34  34 100 SE3       29.51R
BOISE          MOCLDY    52  32  46 W16G28    29.63F
SPOKANE        CLOUDY    33  28  81 SW12      29.48S WCI  24
$$

REGIONAL REPORTS...ALBERTA

CITY           SKY/WX    TMP DP  RH WIND       PRES   REMARKS
CALGARY        LGT SNOW   7   1  78 NW8       29.79R WCI  -6
CARDSTON         N/A      3   0  85 NW5         N/A
EDMONTON       CLOUDY     5  -6  61 NW7       29.93R WCI  -7
FORT MCMURRAY  FLURRIES   0  -6  78 W6        29.92S WCI -12
HIGH LEVEL     FLURRIES  10   3  72 N12G18    30.04  WCI  -4
LETHBRIDGE     LGT SNOW   9   5  85 N12       29.81R VSB 3/4 WCI  -6
LLOYDMINSTER   FLURRIES   5  -2  72 NW12      29.85S WCI -11
MEDICINE HAT   LGT SNOW   9   5  85 N10       29.84R WCI  -6
MILK RIVER       N/A      5   3  92 N18         N/A  WCI -15
PINCHER CREEK  LGT SNOW   5   1  85 E2        29.76R VSB 1
WATERTON GATE    N/A      3   0  85 N6          N/A  WCI  -8
$$

REGIONAL REPORTS...SASKATCHEWAN

CITY           SKY/WX    TMP DP  RH WIND       PRES   REMARKS
CORONACH         N/A      9   1  72 NE7         N/A  WCI  -3
CYPRESS HILLS    N/A      1  -4  78 N10         N/A  WCI -14
ESTEVAN        MOCLDY     3  -2  78 E2        29.82F
MOOSE JAW        N/A      3  -2  78 NW5         N/A
REGINA         CLOUDY    -2  -6  84 S7        29.83R WCI -16
ROCKGLEN         N/A      7   1  78 NE6         N/A  WCI  -3
SASKATOON      CLOUDY     5   0  78 NW9       29.86F WCI  -9
SWIFT CURRENT  CLOUDY     3  -4  72 NE9       29.75S WCI -11
VAL MARIE        N/A      9   5  85 NE15        N/A  WCI  -8
$$




USA.gov is the U.S. government's official web portal to all federal, state and local government web resources and services.